Location: The Rolnick Observatory
(41.1711°N, 73.3275°W)
Time: 13:53:01
(UTC-04:00)

N. Korean satellite - Pass Details

Date: 23 February 2019
Orbit: 456 x 510 km, 97.2° (Epoch: 23 March)

Event Time Altitude Azimuth Distance (km) Brightness Sun altitude
Rises 18:21:12 0° 210° (SSW) 2,581 10.8 -9.1°
Reaches altitude 10° 18:24:13 10° 238° (WSW) 1,693 10.4 -9.6°
Maximum altitude 18:26:03 13° 268° (W) 1,491 10.5 -10.0°
Drops below altitude 10° 18:27:52 10° 298° (WNW) 1,685 10.3 -10.3°
Sets 18:30:52 0° 326° (NNW) 2,559 10.7 -10.9°
